Location: Austin
(30.3000°N, 97.7500°W)
Time: 03:38:21
(UTC-06:00)

Cosmos 2237 Rocket - Pass Details

Date: 20 November 2023
Orbit: 835 x 848 km, 71.0° (Epoch: 04 December)

Event Time Altitude Azimuth Distance (km) Brightness Sun altitude
Rises 18:39:06 0° 353° (N) 3,392 5.3 -14.5°
Reaches altitude 10° 18:41:52 10° 4° (N) 2,453 4.4 -15.1°
Maximum altitude 18:46:44 29° 64° (ENE) 1,476 2.9 -16.1°
Enters shadow 18:48:44 24° 98° (E) 1,680 3.2 -16.5°
